Location: Kuffner-Sternwarte
(48.2130°N, 16.2960°E)
Time: 18:10:43
(UTC+02:00)

COROT - Pass Details

Date: 23 May 2018
Orbit: 602 x 887 km, 90.0° (Epoch: 15 July)

Event Time Altitude Azimuth Distance (km) Brightness Sun altitude
Rises 21:57:55 0° 360° (N) 3,059 10.0 -10.9°
Reaches altitude 10° 22:00:07 10° 359° (N) 2,178 9.2 -11.2°
Maximum altitude 22:04:56 76° 274° (W) 773 6.1 -11.7°
Drops below altitude 10° 22:10:09 10° 190° (S) 2,348 8.1 -12.2°
Enters shadow 22:11:21 - 189° (S) 2,821 8.5 -12.3°
